Lapse_Rate
8.2 8.3 8.0 8.2 8.1 7.5 6.8 7.9 7.9 7.9 7.9 7.7 7.6 7.4 7.6 7.8 8.1 8.6 9.2 9.4 8.1 7.3 7.7 8.1 8.1 7.3 7.2 7.1 6.5 6.8 6.7 6.8 6.5 6.5 6.5 6.5 6.5 6.5 6.5 6.5 6.5 6.5 6.5 6.5 6.5 6.5 6.5 6.7 6.6 6.5 6.5 6.7 6.9 7.0
8.1 7.4 8.0 7.8 8.5 8.3 7.3 7.7 7.9 7.8 7.9 7.8 7.5 7.5 7.5 7.1 7.4 8.2 8.8 9.6 9.0 7.9 7.7 8.9 8.8 8.9 8.4 8.3 7.4 7.3 6.8 6.7 6.7 6.5 6.5 6.5 6.5 6.5 6.5 6.5 6.5 6.5 6.5 6.5 6.5 6.5 6.5 6.9 6.8 7.3 7.3 7.0 7.1 7.2
7.5 7.8 7.7 7.6 7.5 7.6 7.1 7.3 7.7 7.8 7.9 7.8 7.8 7.6 7.7 7.3 7.3 8.1 8.7 8.0 8.5 7.8 8.0 8.1 7.8 8.9 9.4 9.0 9.2 7.0 7.3 7.7 7.2 7.8 6.6 6.5 6.5 6.5 6.5 6.5 6.5 6.5 6.6 6.5 6.5 6.5 6.5 6.9 6.9 7.2 7.6 7.4 7.6 7.8
7.4 7.6 7.7 7.6 7.3 7.5 7.0 7.1 7.4 7.0 7.9 7.9 7.8 7.7 7.6 7.5 6.7 6.9 6.4 7.2 7.3 7.8 6.7 7.2 9.2 8.5 9.4 9.4 9.1 8.9 8.3 8.2 8.1 7.6 6.6 6.5 6.5 6.7 6.5 6.5 6.5 6.5 6.5 6.5 6.5 6.5 6.7 7.0 7.3 7.5 7.6 7.8 7.8 7.9
7.4 7.4 7.4 7.6 7.0 7.6 7.9 8.0 7.8 7.1 7.4 7.8 7.9 7.7 7.6 7.3 6.9 7.0 6.8 7.2 7.1 7.2 6.8 7.0 8.5 8.9 9.2 9.1 8.8 8.8 8.4 7.9 7.6 6.7 6.5 6.5 6.7 6.6 6.5 6.5 6.5 6.6 6.5 6.5 6.5 6.5 6.7 6.7 7.5 7.8 7.5 7.5 7.7 7.7
7.6 7.2 7.3 7.4 7.7 8.2 7.9 7.9 7.4 7.1 7.0 7.7 7.8 7.8 7.6 7.2 7.3 5.6 5.9 6.1 7.4 7.5 7.2 6.5 8.3 8.2 8.6 8.7 8.5 8.3 8.5 7.8 7.7 7.0 6.6 7.2 7.6 6.7 6.5 6.5 6.5 7.1 7.3 7.5 6.5 7.4 7.3 7.5 7.8 8.0 7.7 7.8 7.9 7.9
7.2 7.2 7.5 7.5 7.7 8.2 7.6 7.6 7.4 7.1 7.3 7.7 7.9 7.8 7.6 7.3 6.2 6.5 7.1 8.1 7.4 8.9 7.4 6.5 6.5 8.0 8.5 8.4 8.2 8.2 8.3 7.9 7.5 7.1 6.7 6.8 6.9 6.9 6.5 6.5 6.5 7.2 7.6 7.7 7.9 7.7 7.1 7.5 7.2 7.9 8.0 8.1 8.2 8.2
7.3 7.5 7.4 7.3 7.5 7.9 8.0 7.7 7.5 6.9 7.7 7.8 7.8 7.9 7.8 5.8 5.6 6.4 7.9 8.5 9.2 8.6 8.0 6.5 6.5 6.9 8.3 7.0 6.7 8.1 7.1 7.3 7.3 7.0 7.1 6.5 7.0 6.7 6.5 6.5 7.0 7.5 7.6 7.5 7.6 7.9 7.7 7.9 7.9 7.9 8.1 8.1 7.8 7.8
7.5 7.4 7.3 7.4 7.7 7.7 7.7 7.2 7.0 7.4 8.4 8.4 7.9 5.6 5.1 5.7 5.8 6.9 8.1 8.7 8.8 8.2 6.7 6.7 6.5 6.5 7.9 7.1 7.3 7.2 7.2 6.5 7.4 6.5 6.5 6.8 6.5 6.5 6.5 6.6 6.9 7.2 7.2 7.2 7.7 7.7 7.7 7.5 7.6 7.8 7.9 7.8 7.6 7.6
6.8 6.9 7.0 6.9 6.9 7.0 7.0 6.9 7.4 7.2 6.6 6.0 6.8 7.1 6.8 6.8 7.4 8.2 8.5 7.4 7.6 7.8 7.8 6.5 7.4 6.5 7.2 6.8 6.6 6.7 6.8 6.5 6.5 6.5 7.1 6.5 6.5 7.0 7.4 7.5 7.6 7.5 7.7 7.7 7.1 7.0 7.3 7.3 7.4 7.5 7.7 7.9 7.9 7.9
7.3 7.0 6.7 6.7 6.6 6.6 6.7 6.9 7.0 6.7 6.6 8.8 7.3 7.3 8.5 7.7 8.6 8.0 6.9 6.7 6.9 6.5 7.3 7.3 7.2 6.5 7.6 6.5 6.5 6.9 6.5 6.5 6.5 6.5 6.5 6.5 6.5 6.5 7.8 7.7 7.9 7.9 8.0 7.9 7.9 7.9 7.8 7.8 7.7 7.7 7.8 7.9 8.0 7.8
7.4 7.6 7.5 7.1 7.0 7.0 7.1 7.7 7.2 8.3 9.1 8.5 8.8 9.1 9.0 8.0 7.3 6.6 6.5 6.6 6.5 6.5 6.8 6.5 6.8 7.2 7.2 7.4 6.6 6.7 6.5 6.5 6.5 6.6 6.5 6.5 6.5 7.1 7.6 7.7 7.9 7.9 7.9 7.9 8.0 7.9 8.0 8.1 8.1 8.0 7.6 6.9 5.7 2.9
7.1 7.4 7.6 7.6 7.7 7.9 7.8 7.7 8.0 8.0 8.8 9.4 8.4 7.6 7.3 7.1 6.5 6.5 6.5 6.5 6.5 6.6 6.9 6.9 6.6 6.7 7.1 7.3 6.6 6.5 6.5 6.5 6.5 6.5 6.5 6.5 6.5 7.2 7.4 7.5 7.7 8.0 7.9 8.0 8.0 8.2 8.2 7.9 6.1 4.2 3.8 2.6 2.2 2.5
7.6 7.5 7.7 8.0 7.9 7.4 7.3 7.1 6.8 7.3 8.8 7.6 6.9 6.5 6.5 6.5 6.5 6.5 6.5 6.5 6.8 6.9 6.8 6.9 6.7 6.5 6.7 6.5 6.5 6.5 6.5 6.5 6.5 6.5 6.5 6.5 6.7 7.0 7.5 7.4 6.0 4.9 3.1 5.2 6.0 4.9 1.9 1.3 1.3 1.6 2.1 2.4 3.2 3.5
7.5 7.8 8.0 7.8 7.4 7.1 6.9 6.9 7.1 9.1 8.5 7.1 7.0 6.5 6.5 6.8 7.0 7.0 7.1 7.2 7.5 7.7 7.2 6.9 6.9 6.8 6.5 6.5 6.5 6.5 6.5 6.5 6.5 6.5 6.5 6.3 6.6 6.9 6.7 7.2 7.0 5.3 2.2 2.6 4.7 3.9 2.0 2.1 2.7 3.6 4.5 5.4 5.2 4.9
7.2 7.5 8.7 7.6 7.4 7.2 7.2 8.1 9.3 9.3 8.4 7.5 7.2 6.6 6.9 6.6 6.5 6.8 6.9 6.9 7.3 6.9 7.0 7.2 6.5 6.5 6.5 6.5 6.5 6.5 6.5 6.5 6.5 6.5 6.6 7.2 6.9 6.9 6.6 5.5 3.8 3.5 4.9 5.1 5.6 5.0 4.6 3.8 4.4 5.4 6.0 5.0 4.9 5.5
6.9 7.8 7.0 7.2 7.4 7.3 7.7 8.8 8.6 8.0 7.5 7.1 6.6 7.4 7.1 7.0 6.7 6.9 7.3 7.2 7.4 6.9 6.5 6.5 6.5 6.5 6.5 6.5 6.5 6.5 6.5 6.5 6.5 6.9 7.2 7.3 7.3 6.5 4.5 3.1 2.4 2.4 4.3 5.3 6.1 6.5 6.3 5.5 5.3 6.4 6.9 6.9 5.7 6.3
8.5 8.0 6.9 7.2 7.8 8.8 9.0 8.9 8.2 7.6 6.7 7.2 6.6 6.8 7.3 7.4 7.2 7.3 7.5 7.8 7.5 7.1 6.9 6.5 6.8 6.5 6.5 6.5 6.5 6.5 6.6 7.0 7.3 7.3 7.5 7.3 7.2 6.9 5.4 6.3 3.6 4.3 5.8 6.2 6.0 5.1 6.2 6.9 7.6 7.8 7.7 7.3 7.2 7.2
7.7 8.2 6.9 7.5 8.6 8.4 8.1 7.9 8.3 6.7 7.0 7.4 7.4 7.6 7.5 7.4 7.9 8.0 7.9 8.0 8.1 8.1 7.4 6.8 6.5 6.5 6.5 6.5 6.5 6.8 6.9 7.1 7.1 7.3 7.5 7.0 6.0 5.1 4.4 5.5 6.6 6.6 6.4 6.4 7.2 7.9 7.9 7.7 7.5 7.0 7.2 7.5 7.5 7.4
7.1 6.9 6.7 7.6 7.6 8.4 7.7 7.7 8.6 7.4 6.6 7.0 7.6 7.3 7.4 7.3 7.6 7.5 7.7 7.8 7.7 7.4 6.6 6.5 6.5 6.6 6.8 7.2 7.6 7.6 7.7 7.7 7.7 7.3 7.3 7.6 7.6 5.3 5.8 6.8 7.2 7.7 8.0 7.7 7.7 6.4 7.8 7.2 6.8 6.5 7.0 6.9 7.0 6.7
7.2 7.5 7.2 8.3 8.3 8.4 8.1 7.6 7.4 7.5 7.5 7.1 7.5 7.4 7.1 7.5 7.1 7.1 7.2 7.4 7.1 6.7 6.5 7.1 7.3 7.6 8.0 8.1 8.2 8.1 7.9 7.6 7.4 7.3 7.6 7.6 7.8 7.6 7.6 7.3 7.6 8.1 8.0 8.0 7.7 7.7 6.4 6.7 6.1 6.2 6.0 6.6 6.3 6.0
7.4 7.4 8.1 8.1 6.9 7.4 7.8 8.3 7.6 7.9 7.4 7.2 7.3 7.3 6.8 6.5 6.6 6.9 7.5 7.0 6.8 7.0 6.9 7.3 7.6 7.8 7.8 7.9 8.1 8.2 7.2 6.8 7.8 7.4 6.2 6.5 7.4 7.4 7.7 7.7 7.6 7.5 7.6 7.5 7.5 7.5 7.0 6.4 5.4 5.8 5.9 5.7 6.2 6.0
6.2 7.5 7.2 6.9 7.0 7.3 7.0 8.4 7.0 7.3 6.5 6.6 7.0 6.5 6.5 6.6 7.0 7.9 6.6 7.0 7.1 7.6 8.0 8.1 8.2 8.3 8.1 8.3 8.3 8.2 8.4 7.8 8.0 7.7 6.6 6.2 6.2 6.5 6.8 7.6 6.8 6.8 7.2 6.5 7.0 7.3 6.7 6.0 5.4 5.6 5.8 6.2 6.7 6.3
5.1 6.2 6.7 7.0 7.0 6.6 7.2 6.9 7.4 7.0 6.8 6.5 6.5 6.5 6.5 6.6 7.3 6.6 6.5 6.8 7.4 7.9 7.8 8.0 8.2 8.0 8.0 8.0 7.9 8.1 8.1 8.3 8.2 7.9 7.2 6.4 6.6 6.3 5.9 5.8 5.8 6.0 6.5 6.6 6.7 6.4 5.8 5.7 5.6 5.9 6.0 6.5 6.8 6.9
7.0 6.8 7.1 6.5 7.3 6.6 6.5 6.5 6.5 6.5 6.5 6.5 6.5 6.5 6.5 7.1 6.5 6.5 6.5 6.7 7.1 7.5 7.8 8.1 8.1 8.0 7.7 7.8 8.0 8.2 8.2 8.4 8.0 7.7 6.7 6.4 5.9 6.5 6.3 5.8 5.8 5.6 5.2 5.8 6.2 6.2 6.1 5.9 5.9 6.1 6.4 6.4 6.7 6.8
6.5 6.9 6.7 6.6 6.6 6.5 6.5 6.5 6.5 6.5 6.5 6.5 6.5 6.7 6.9 6.5 6.5 6.5 6.5 7.0 7.2 7.7 7.7 7.7 7.7 7.7 7.9 8.2 8.1 8.1 8.2 7.3 7.8 7.5 6.7 6.1 6.6 6.5 6.7 6.8 6.9 6.0 5.8 5.6 6.0 6.3 6.4 6.1 6.2 6.4 6.6 6.5 6.3 6.7
6.5 6.5 7.3 8.1 7.5 7.3 6.7 6.9 7.0 6.5 6.5 6.5 6.5 6.5 6.5 6.5 6.5 6.5 7.3 7.6 7.7 7.8 8.1 8.2 8.2 8.0 7.9 8.1 8.2 8.0 8.1 8.3 8.1 7.6 6.7 6.0 6.4 6.2 5.9 6.3 6.5 5.6 5.6 5.5 5.6 5.8 6.1 6.4 6.4 6.6 6.6 6.5 6.5 6.5
7.0 7.3 6.5 7.1 6.9 7.2 6.5 6.5 6.5 6.5 6.5 6.9 6.7 6.5 6.5 6.5 6.5 7.2 7.5 7.8 8.2 8.5 8.5 8.4 8.4 8.2 7.7 7.8 8.0 7.8 7.7 7.3 6.4 6.8 6.5 6.1 5.9 5.5 5.2 5.0 4.9 4.6 5.3 5.0 5.4 5.8 6.0 6.2 6.4 6.7 6.8 6.9 6.9 6.4
7.0 7.6 7.6 6.5 6.8 6.9 6.7 6.5 6.5 7.0 7.3 7.2 6.5 6.5 6.6 7.2 7.2 7.4 7.5 8.3 8.6 8.0 7.8 7.8 8.0 7.9 7.8 7.0 7.0 6.5 6.9 7.1 6.9 7.2 7.3 7.3 6.7 6.1 5.5 5.5 5.8 6.1 6.3 6.6 5.2 4.9 4.7 5.3 5.5 6.1 6.4 6.7 6.7 6.7
7.0 8.0 7.0 6.7 6.5 6.5 7.0 7.7 7.3 7.2 7.8 7.3 7.4 7.6 7.6 7.2 7.4 7.8 8.2 8.3 8.1 7.8 7.7 7.7 7.9 7.8 7.8 7.7 6.8 6.4 7.0 7.1 7.1 7.1 7.1 7.2 7.0 6.6 6.2 6.2 6.8 6.9 7.1 7.2 7.4 7.1 6.0 6.2 6.0 6.6 6.6 6.6 7.2 7.4
8.0 7.8 7.1 7.0 6.6 7.4 7.8 8.1 8.1 7.9 7.9 7.6 7.9 7.4 7.3 7.1 7.4 7.8 8.1 8.1 8.2 8.1 8.0 7.9 7.9 7.9 7.8 7.7 7.7 7.4 7.2 7.7 7.2 6.9 6.7 6.9 7.0 6.8 6.7 6.6 6.8 7.1 7.4 7.5 7.6 7.2 6.7 6.8 6.9 6.9 7.3 7.3 7.5 7.5
7.7 7.1 6.7 6.5 6.7 7.9 7.9 7.4 7.4 7.4 7.5 7.4 7.3 7.6 7.5 7.2 7.0 7.8 8.1 8.3 8.2 7.8 7.9 7.9 7.8 7.8 7.3 7.5 7.7 7.4 6.7 7.2 7.4 7.0 6.4 6.2 6.3 6.6 6.6 7.0 7.2 7.2 7.2 7.2 6.6 6.8 7.3 7.2 7.4 7.2 7.3 7.5 7.4 7.2
7.3 7.4 7.3 7.0 6.8 6.8 7.5 7.4 7.0 6.8 7.0 6.9 7.0 7.1 7.1 7.1 6.8 7.7 8.4 8.2 7.8 7.8 7.9 7.9 7.8 7.6 6.7 7.6 6.9 6.6 6.3 6.8 6.7 6.5 6.4 6.4 6.0 6.1 6.7 7.1 7.2 7.3 7.2 7.3 7.4 7.3 7.3 7.4 7.3 7.4 7.4 7.5 7.5 7.3
Wind_Speed
24 26 26 24 24 17 24 27 26 24 23 24 25 25 24 21 20 12 8 7 5 3 9 7 6 6 3 3 4 2 3 3 2 3 1 3 4 5 6 14 16 15 5 5 6 6 10 12 4 5 4 7 10 11
21 23 24 24 22 18 22 25 25 25 24 23 25 24 22 17 19 19 9 6 5 5 4 6 5 7 8 8 4 3 4 7 3 1 1 1 2 3 8 6 6 5 5 6 6 4 8 5 10 8 5 5 6 7
21 18 22 24 25 20 21 23 24 25 24 23 25 24 25 24 27 14 6 1 4 4 6 8 10 10 7 6 4 3 5 4 1 5 1 2 5 2 5 5 3 2 5 4 13 8 6 12 10 13 3 3 5 3
20 17 21 23 24 21 17 17 19 22 21 22 23 24 22 19 21 21 5 3 2 2 3 7 6 5 7 8 11 10 10 10 7 3 4 4 4 7 7 8 9 9 7 6 12 5 4 4 2 4 2 3 3 5
14 11 20 22 24 20 18 18 19 20 22 21 23 23 21 19 17 11 5 2 3 2 2 3 6 6 7 8 12 13 12 11 7 8 5 7 8 8 8 11 11 11 10 2 5 6 7 2 2 6 7 6 4 7
4 15 18 22 22 18 15 16 19 20 23 21 22 24 23 19 20 4 1 3 6 3 2 2 4 7 12 14 13 12 10 10 8 7 7 9 15 9 6 10 13 14 11 19 10 12 7 5 7 8 10 10 8 5
11 16 17 18 19 17 14 17 19 19 19 21 22 25 23 24 5 2 2 2 19 7 2 3 3 3 13 12 9 9 11 7 7 7 9 10 9 9 11 16 15 17 18 18 17 15 13 7 7 7 7 9 8 8
18 17 17 17 18 18 16 20 17 21 18 22 22 24 21 21 12 2 4 12 12 3 2 3 4 6 8 6 5 7 8 8 8 8 6 8 8 10 7 12 19 22 20 15 16 16 10 7 6 6 7 7 7 8
19 18 18 17 17 15 18 20 22 22 21 21 25 26 5 2 2 4 6 8 2 1 2 3 4 7 2 3 4 3 3 6 5 8 11 7 9 10 9 14 14 14 12 13 6 3 5 6 7 8 8 7 8 8
23 23 23 23 24 24 25 27 31 32 34 33 7 3 2 2 25 16 3 2 3 3 4 5 7 7 3 2 2 4 3 4 4 8 7 12 15 19 17 16 13 13 13 9 2 7 7 8 5 7 7 7 7 7
22 23 26 27 27 28 28 29 31 32 26 2 2 3 7 20 4 2 3 3 4 4 4 6 11 10 6 7 5 3 3 3 5 6 8 5 10 17 21 19 18 11 10 7 6 6 4 4 4 5 6 5 5 6
23 24 25 28 29 30 31 30 29 7 3 5 8 8 4 2 2 3 3 3 5 4 4 5 5 5 3 3 5 3 4 4 8 2 5 3 5 13 19 22 20 14 15 5 1 2 3 2 4 4 5 5 5 5
20 22 23 24 25 26 24 19 4 13 8 3 3 2 3 3 4 4 6 4 4 4 3 2 1 2 1 3 2 3 6 6 6 2 2 2 2 3 4 6 15 14 6 5 4 3 2 4 6 6 4 3 4 4
18 19 21 21 16 10 11 13 8 5 3 1 2 3 3 4 5 5 7 7 5 3 4 4 3 4 3 5 5 5 3 2 3 2 1 4 4 4 7 9 12 9 8 6 5 5 4 4 3 4 5 5 6 6
15 16 15 11 12 11 7 7 11 4 1 1 1 3 5 5 6 4 7 6 7 7 7 5 6 5 3 4 4 3 3 4 4 1 1 3 6 8 7 7 6 6 4 3 2 3 0 2 4 6 6 5 5 2
18 15 7 7 6 3 6 7 4 2 2 2 5 4 6 6 6 5 6 7 4 4 4 5 3 4 3 2 5 4 3 1 2 4 4 4 5 4 3 4 4 4 3 3 2 1 1 3 5 7 3 2 3 3
8 2 14 11 7 1 4 3 1 3 3 4 3 4 6 7 6 4 5 5 4 1 2 3 3 1 3 2 4 3 1 4 5 4 3 5 3 4 4 4 4 3 2 1 1 1 4 5 6 6 6 3 3 3
4 7 18 14 10 3 2 2 3 3 4 5 6 4 4 4 6 6 5 5 6 4 3 2 3 2 2 2 1 2 4 3 3 3 2 3 2 3 4 4 6 5 4 4 2 3 5 5 5 5 3 1 3 3
8 3 15 16 9 2 2 4 3 3 5 5 5 4 4 4 5 7 7 6 7 7 6 3 3 3 2 4 6 5 4 4 4 4 4 4 2 3 1 4 1 3 4 2 2 3 3 4 3 2 3 2 3 1
6 2 15 15 14 2 4 2 3 4 3 2 3 4 3 4 4 4 6 5 5 3 3 3 3 5 5 5 6 6 6 6 6 6 6 5 3 5 5 5 5 4 3 3 3 2 4 4 2 1 0 1 1 2
3 4 6 6 3 4 4 3 3 3 3 3 5 5 4 2 2 3 4 3 2 2 2 2 4 5 6 5 5 5 5 7 7 7 8 8 7 6 4 4 2 3 2 2 3 3 3 3 0 2 2 1 1 2
3 6 3 5 2 3 4 4 4 3 3 4 6 5 4 3 3 3 2 3 2 3 2 3 4 4 5 7 6 5 4 6 7 6 6 7 6 6 7 5 5 4 2 1 4 4 3 2 2 2 3 3 2 2
4 3 1 4 4 3 5 3 3 3 4 3 2 2 3 3 1 1 2 2 2 2 3 4 5 7 6 7 6 5 4 4 6 6 6 5 6 6 6 3 4 3 3 1 2 1 0 3 4 3 3 4 3 3
7 1 2 2 3 3 1 3 4 3 3 3 3 3 4 2 3 3 4 3 3 4 4 7 7 6 5 6 5 5 3 4 4 5 5 6 4 3 3 2 2 0 0 2 2 1 0 3 4 4 4 4 5 4
3 3 2 5 3 4 4 3 2 3 2 2 3 3 2 3 2 3 5 3 6 6 7 7 7 7 7 6 5 6 5 4 4 6 6 4 3 3 1 1 1 0 1 1 1 2 2 2 3 4 5 5 6 6
3 2 4 8 5 4 4 4 3 3 4 2 2 2 2 2 2 4 3 5 6 7 7 7 7 7 8 9 9 8 8 7 6 6 4 5 4 4 5 3 0 2 2 2 2 2 2 2 3 5 5 6 6 6
4 7 4 5 6 6 5 4 6 4 4 3 1 2 2 3 3 3 3 6 5 5 5 5 6 6 7 7 6 6 6 7 6 5 6 6 3 3 3 4 4 3 3 3 3 3 4 4 3 2 3 3 5 6
4 8 12 13 7 4 4 3 3 2 2 4 4 2 3 5 4 2 4 4 5 6 5 5 5 6 7 7 7 5 4 4 6 7 5 3 1 1 2 2 3 3 2 3 4 3 4 4 4 4 3 3 3 5
6 9 10 11 11 5 3 5 5 4 2 3 4 2 3 3 3 3 4 6 6 5 6 6 6 7 6 7 7 9 2 4 6 9 10 6 4 2 2 2 1 2 3 2 5 5 5 4 4 4 4 4 3 3
9 9 10 11 9 6 6 8 8 7 6 2 2 3 4 2 4 6 6 6 7 7 7 7 6 7 7 8 8 10 5 7 7 6 6 6 5 3 3 3 3 2 2 3 2 1 1 2 0 2 2 2 3 3
10 10 13 13 13 12 10 10 10 8 7 7 5 6 7 4 4 6 8 7 6 6 7 7 7 7 8 8 8 8 7 7 10 10 9 5 5 5 5 4 3 3 3 3 3 4 3 2 2 2 4 5 5 5
9 12 11 16 12 10 9 5 7 8 7 7 8 6 4 5 3 3 6 6 7 8 10 8 8 8 9 7 6 7 12 7 8 7 10 7 6 6 5 4 2 2 2 3 2 2 3 3 3 4 4 6 8 8
9 11 12 6 6 8 9 9 6 6 7 7 7 4 2 3 5 3 4 7 7 8 9 9 9 8 11 9 9 8 10 8 11 10 11 10 9 7 6 4 2 1 1 1 2 2 3 4 5 7 8 7 8 9
Wind_Direction
265 248 239 236 225 225 251 213 213 208 204 201 197 199 204 216 211 207 234 220 230 265 276 276 306 273 261 260 270 308 352 215 231 242 310 17 340 4 286 266 271 275 256 235 220 236 263 9 323 305 3 312 333 309
277 256 235 223 220 225 233 216 205 204 201 198 195 194 190 201 209 207 236 224 221 247 279 340 335 327 329 340 330 220 221 260 185 153 238 135 275 300 314 282 354 285 1 322 277 276 150 136 278 282 25 359 332 341
296 261 224 207 212 220 220 205 199 197 199 195 194 194 191 200 207 202 230 287 222 251 272 256 257 245 240 263 270 275 273 288 314 262 241 248 259 263 267 305 305 319 37 300 292 303 124 184 210 246 73 9 354 301
297 252 207 196 198 207 199 197 194 191 198 193 189 188 187 191 182 193 193 170 224 285 249 264 221 196 231 225 231 243 264 292 289 254 226 241 243 217 257 279 279 283 322 307 301 314 28 94 76 14 6 181 295 318
301 205 182 180 184 197 191 187 190 186 189 188 185 183 182 178 180 172 171 196 226 251 304 305 310 197 202 219 231 228 226 240 250 245 230 241 257 265 262 264 264 273 276 258 266 316 294 267 359 337 321 318 226 259
9 154 162 169 176 177 170 172 167 173 185 183 178 171 167 166 169 103 104 246 214 210 316 276 305 269 233 220 219 233 236 234 231 240 246 241 259 274 270 269 261 259 251 244 306 324 318 332 324 304 290 293 294 337
106 134 144 154 163 158 162 156 153 171 173 171 165 164 164 167 132 152 271 327 177 194 210 262 253 234 233 245 229 223 234 231 222 235 241 255 256 244 247 256 259 281 287 287 290 294 301 300 293 298 323 317 331 310
89 112 123 133 145 153 139 140 153 158 160 163 160 162 151 111 104 67 315 137 157 170 205 253 249 259 216 217 242 247 235 237 236 236 246 239 239 247 253 250 239 253 256 267 256 264 288 292 283 290 277 274 279 294
75 87 101 115 127 136 137 139 141 150 137 128 119 101 84 71 180 138 123 123 213 222 214 233 250 277 267 250 231 247 236 230 235 229 229 239 228 223 239 244 256 275 267 270 261 262 296 298 288 285 296 318 336 346
68 83 91 96 101 111 118 130 124 116 118 116 116 120 122 108 133 144 156 156 216 206 220 251 239 245 250 94 25 301 219 237 240 222 219 224 240 239 239 243 239 250 256 219 245 253 249 252 299 355 350 349 337 350
83 90 95 103 109 116 121 121 125 131 142 162 94 62 105 166 189 142 144 214 181 232 220 244 233 249 246 251 252 252 284 273 245 212 195 215 227 229 232 241 238 236 274 215 263 256 19 6 334 337 328 344 357 5
81 88 98 104 108 111 115 132 144 154 103 100 95 123 147 197 185 194 201 201 222 242 249 237 260 246 254 168 207 244 244 241 251 274 183 249 248 230 211 219 233 238 236 225 199 336 57 34 18 350 347 350 16 12
92 97 102 109 117 127 135 151 88 121 135 113 61 99 185 157 222 221 201 220 214 220 203 161 304 320 340 172 187 234 232 234 311 266 254 326 124 338 1 199 191 215 144 136 146 145 96 49 43 22 354 0 306 295
93 103 109 108 91 86 94 75 26 306 284 132 154 150 231 185 236 225 249 275 312 306 296 266 236 201 224 180 215 242 187 257 267 268 263 25 86 92 94 74 78 74 65 40 64 76 73 36 342 323 324 317 297 292
111 114 112 87 83 89 64 346 317 300 8 292 259 245 231 251 296 259 261 263 264 281 263 261 245 225 219 212 200 238 213 244 217 308 70 101 72 68 55 63 91 103 131 178 196 114 60 334 334 294 274 276 288 274
129 136 141 124 110 80 349 299 279 320 279 247 217 240 252 253 264 250 258 270 268 243 246 226 244 241 180 169 188 226 241 268 70 72 81 84 64 49 82 82 120 157 184 164 151 113 211 201 247 269 261 273 246 225
155 195 171 160 159 182 303 308 288 248 254 254 251 255 270 280 293 300 285 281 200 239 234 227 240 280 174 217 205 230 334 76 77 76 61 66 50 129 145 170 170 170 212 247 330 268 304 305 304 298 297 338 151 223
259 164 174 173 185 194 275 235 260 245 251 247 263 277 291 286 284 285 290 299 294 291 298 332 299 292 279 258 306 7 76 80 58 46 12 44 19 115 179 218 185 204 207 194 173 283 272 251 296 305 314 45 346 277
332 143 177 185 207 252 256 203 245 256 251 259 266 303 309 299 288 278 281 296 302 301 306 277 261 260 323 28 9 22 28 12 2 348 323 288 282 328 241 263 324 236 224 208 255 282 332 326 297 321 337 2 288 315
332 324 187 187 208 252 254 220 196 255 277 305 291 268 255 238 277 334 308 301 294 309 246 233 273 359 5 8 7 356 350 342 319 306 300 297 289 181 223 227 231 227 219 167 175 198 287 285 263 238 307 20 328 304
276 108 153 191 211 275 281 296 243 250 293 282 301 291 280 266 223 236 256 253 264 243 246 12 18 10 357 355 355 345 337 349 336 325 313 310 324 324 266 228 234 246 258 329 324 298 229 249 252 156 125 126 82 84
11 192 132 179 241 250 255 246 262 355 277 261 285 258 263 256 232 219 176 207 229 47 22 39 24 359 350 352 340 334 326 325 321 316 307 300 293 298 287 257 244 255 216 255 272 271 245 200 134 115 128 138 138 137
225 237 224 209 227 256 270 259 236 223 241 238 218 232 234 225 316 308 244 184 92 89 77 52 12 347 336 322 323 319 338 330 320 321 317 306 311 317 321 346 10 4 318 314 296 231 247 150 152 155 149 154 171 156
173 303 331 281 224 259 306 259 226 251 274 270 284 319 328 322 332 267 258 83 130 133 63 6 343 328 325 324 328 324 333 330 321 326 325 311 317 320 318 337 338 98 114 346 2 337 287 179 167 182 175 184 194 188
261 175 244 235 232 244 233 234 255 285 287 301 320 291 312 341 279 285 299 84 51 45 18 359 346 343 335 327 327 331 353 2 340 329 316 308 314 298 315 274 244 157 61 321 279 250 231 192 189 203 194 202 203 193
272 72 327 5 346 313 340 314 317 334 320 316 265 297 307 277 264 258 85 34 25 17 6 358 350 342 338 346 340 335 339 343 336 320 325 348 342 340 336 329 10 96 45 356 330 333 309 241 213 216 217 202 209 202
46 20 358 340 314 296 279 277 283 265 249 239 319 313 268 252 246 71 90 32 8 360 348 349 342 338 331 329 322 310 308 309 312 301 307 303 331 17 5 2 27 34 3 16 4 3 346 354 342 264 239 211 205 203
11 11 351 330 317 295 283 266 260 257 20 8 343 285 290 346 51 57 47 9 2 359 0 352 354 354 337 338 321 304 307 314 293 278 257 249 169 97 67 48 46 347 10 26 353 3 3 354 350 354 339 286 213 186
333 353 343 327 346 295 334 13 358 6 23 350 329 303 305 46 35 40 28 21 22 14 2 352 352 342 351 351 2 345 341 342 329 336 346 323 163 120 69 57 23 18 16 92 67 38 15 7 3 8 19 36 51 114
308 319 314 320 312 291 1 348 333 327 319 290 270 269 293 88 60 46 37 26 19 11 4 357 345 349 1 354 351 358 9 19 8 2 345 14 24 38 40 25 12 27 6 359 -0 119 277 282 259 29 51 64 70 90
301 307 310 308 302 301 302 312 301 281 271 264 254 262 276 136 123 62 35 21 18 19 10 1 356 357 357 349 354 348 348 10 5 11 7 6 24 20 8 354 358 359 8 16 20 34 359 15 48 69 67 78 84 96
310 311 308 303 304 302 304 334 313 290 280 270 266 270 246 201 117 86 24 17 24 21 10 4 356 347 333 327 12 2 357 0 3 0 2 350 348 346 335 320 307 3 34 42 37 32 26 45 71 88 94 92 85 88
304 317 298 295 329 334 320 312 303 288 265 259 267 324 77 73 71 76 47 16 36 21 8 -0 350 6 2 350 28 4 351 346 349 358 353 353 350 341 324 334 9 34 23 74 90 96 73 80 86 92 95 102 104 99